Time,TemperatureF,DewpointF,PressureIn,WindDirection,WindDirectionDegrees,WindSpeedMPH,WindSpeedGustMPH,Humidity,HourlyPrecipIn,Conditions,Clouds,dailyrainin,SoftwareType,DateUTC
2013-08-01 00:01:00,57.1,53.9,29.59,North,0,0.0,0.0,89,0.00,,,0.00,WUHU216HW,2013-08-01 05:01:00,
2013-08-01 00:06:00,56.9,54.0,29.59,North,0,0.0,0.0,90,0.00,,,0.00,WUHU216HW,2013-08-01 05:06:00,
2013-08-01 00:11:00,56.8,53.9,29.59,North,0,0.0,0.0,90,0.00,,,0.00,WUHU216HW,2013-08-01 05:11:00,
2013-08-01 00:16:00,56.8,53.9,29.59,North,0,0.0,0.0,90,0.00,,,0.00,WUHU216HW,2013-08-01 05:16:00,
2013-08-01 00:22:00,56.6,53.7,29.59,North,0,0.0,0.0,90,0.00,,,0.00,WUHU216HW,2013-08-01 05:22:00,
2013-08-01 00:27:00,56.6,53.7,29.59,North,0,0.0,0.0,90,0.00,,,0.00,WUHU216HW,2013-08-01 05:27:00,
2013-08-01 00:32:00,56.4,53.5,29.59,North,0,0.0,0.0,90,0.00,,,0.00,WUHU216HW,2013-08-01 05:32:00,
2013-08-01 00:37:00,56.4,53.5,29.59,North,0,0.0,0.0,90,0.00,,,0.00,WUHU216HW,2013-08-01 05:37:00,
2013-08-01 00:42:00,56.2,53.3,29.59,North,0,0.0,0.0,90,0.00,,,0.00,WUHU216HW,2013-08-01 05:42:00,
2013-08-01 00:47:00,56.2,53.6,29.59,North,0,0.0,0.0,91,0.00,,,0.00,WUHU216HW,2013-08-01 05:47:00,
2013-08-01 00:52:00,56.2,53.6,29.59,North,0,0.0,0.0,91,0.00,,,0.00,WUHU216HW,2013-08-01 05:52:00,
2013-08-01 00:57:00,56.2,53.6,29.59,North,0,0.0,0.0,91,0.00,,,0.00,WUHU216HW,2013-08-01 05:57:00,
2013-08-01 01:02:00,56.2,53.6,29.58,WSW,248,1.3,1.6,91,0.00,,,0.00,WUHU216HW,2013-08-01 06:02:00,
2013-08-01 01:07:00,56.4,54.1,29.58,WSW,248,1.3,1.6,92,0.00,,,0.00,WUHU216HW,2013-08-01 06:07:00,
2013-08-01 01:12:00,56.4,54.1,29.58,WSW,248,0.0,1.6,92,0.00,,,0.00,WUHU216HW,2013-08-01 06:12:00,
2013-08-01 01:17:00,56.6,54.3,29.58,WSW,248,1.7,1.9,92,0.00,,,0.00,WUHU216HW,2013-08-01 06:17:00,
2013-08-01 01:22:00,56.8,54.5,29.58,WSW,248,0.3,1.9,92,0.00,,,0.00,WUHU216HW,2013-08-01 06:22:00,
2013-08-01 01:28:00,57.1,55.1,29.58,WSW,239,0.8,2.3,93,0.00,,,0.00,WUHU216HW,2013-08-01 06:28:00,
2013-08-01 01:33:00,57.5,55.5,29.58,WSW,254,0.8,2.3,93,0.00,,,0.00,WUHU216HW,2013-08-01 06:33:00,
2013-08-01 01:38:00,57.7,55.7,29.58,WSW,239,1.4,2.8,93,0.00,,,0.00,WUHU216HW,2013-08-01 06:38:00,
2013-08-01 01:43:00,57.7,55.7,29.58,SW,225,1.9,2.8,93,0.00,,,0.00,WUHU216HW,2013-08-01 06:43:00,
2013-08-01 01:48:00,57.7,55.7,29.58,SSE,158,2.4,2.8,93,0.00,,,0.00,WUHU216HW,2013-08-01 06:48:00,
2013-08-01 01:53:00,57.5,55.5,29.58,SW,225,1.7,2.8,93,0.00,,,0.00,WUHU216HW,2013-08-01 06:53:00,
2013-08-01 01:58:00,57.5,55.5,29.58,WSW,242,1.1,1.9,93,0.00,,,0.00,WUHU216HW,2013-08-01 06:58:00,
2013-08-01 02:03:00,57.5,55.5,29.58,WSW,243,0.8,1.9,93,0.00,,,0.00,WUHU216HW,2013-08-01 07:03:00,
2013-08-01 02:08:00,57.3,55.3,29.57,WSW,248,1.0,1.6,93,0.00,,,0.00,WUHU216HW,2013-08-01 07:08:00,
2013-08-01 02:13:00,57.3,55.3,29.57,SW,225,1.7,1.9,93,0.00,,,0.00,WUHU216HW,2013-08-01 07:13:00,
2013-08-01 02:18:00,57.1,55.1,29.57,WSW,248,0.7,1.9,93,0.00,,,0.00,WUHU216HW,2013-08-01 07:18:00,
2013-08-01 02:23:00,56.9,54.9,29.57,SSW,203,0.6,1.6,93,0.00,,,0.00,WUHU216HW,2013-08-01 07:23:00,
2013-08-01 02:28:00,56.8,54.5,29.57,SSW,203,0.0,1.2,92,0.00,,,0.00,WUHU216HW,2013-08-01 07:28:00,
2013-08-01 02:29:00,56.8,54.5,29.57,SSW,203,0.0,1.2,92,0.00,,,0.00,WUHU216HW,2013-08-01 07:29:00,
2013-08-01 02:34:00,56.6,54.3,29.57,SSE,158,1.0,1.9,92,0.00,,,0.00,WUHU216HW,2013-08-01 07:34:00,
2013-08-01 02:39:00,56.4,54.4,29.57,SSE,158,0.0,1.9,93,0.00,,,0.00,WUHU216HW,2013-08-01 07:39:00,
2013-08-01 02:44:00,56.4,54.4,29.57,WSW,248,1.3,1.6,93,0.00,,,0.00,WUHU216HW,2013-08-01 07:44:00,
2013-08-01 02:49:00,56.6,54.6,29.58,NW,315,0.0,1.6,93,0.00,,,0.00,WUHU216HW,2013-08-01 07:49:00,
2013-08-01 02:54:00,56.8,54.8,29.57,WSW,248,2.0,3.1,93,0.00,,,0.00,WUHU216HW,2013-08-01 07:54:00,
2013-08-01 02:59:00,57.1,55.1,29.57,NNW,338,1.9,3.1,93,0.00,,,0.00,WUHU216HW,2013-08-01 07:59:00,
2013-08-01 03:05:00,57.1,55.1,29.57,WSW,248,0.6,3.1,93,0.00,,,0.00,WUHU216HW,2013-08-01 08:05:00,
2013-08-01 03:10:00,57.1,55.1,29.57,NNW,338,1.0,1.9,93,0.00,,,0.00,WUHU216HW,2013-08-01 08:10:00,
2013-08-01 03:15:00,57.1,55.1,29.57,WSW,248,0.0,1.9,93,0.00,,,0.00,WUHU216HW,2013-08-01 08:15:00,
2013-08-01 03:20:00,56.9,54.9,29.57,West,270,1.1,1.9,93,0.00,,,0.00,WUHU216HW,2013-08-01 08:20:00,
2013-08-01 03:25:00,56.9,54.9,29.57,West,262,0.8,1.9,93,0.00,,,0.00,WUHU216HW,2013-08-01 08:25:00,
2013-08-01 03:30:00,56.8,54.8,29.57,West,270,0.3,1.6,93,0.00,,,0.00,WUHU216HW,2013-08-01 08:30:00,
2013-08-01 03:36:00,56.8,54.8,29.57,WSW,248,1.0,1.6,93,0.00,,,0.00,WUHU216HW,2013-08-01 08:36:00,
2013-08-01 03:41:00,56.8,54.8,29.57,NE,45,1.3,1.9,93,0.00,,,0.00,WUHU216HW,2013-08-01 08:41:00,
2013-08-01 03:46:00,56.9,54.9,29.57,WSW,248,1.1,1.9,93,0.00,,,0.00,WUHU216HW,2013-08-01 08:46:00,
2013-08-01 03:52:00,57.1,55.1,29.57,West,270,1.3,1.9,93,0.00,,,0.00,WUHU216HW,2013-08-01 08:52:00,
2013-08-01 03:57:00,57.1,55.1,29.56,WSW,248,1.4,3.1,93,0.00,,,0.00,WUHU216HW,2013-08-01 08:57:00,
2013-08-01 04:02:00,57.1,55.1,29.56,WSW,257,1.0,3.1,93,0.00,,,0.00,WUHU216HW,2013-08-01 09:02:00,
2013-08-01 04:07:00,56.9,54.9,29.56,WSW,248,0.0,1.9,93,0.00,,,0.00,WUHU216HW,2013-08-01 09:07:00,
2013-08-01 04:13:00,56.8,54.8,29.56,WSW,248,0.6,1.6,93,0.00,,,0.00,WUHU216HW,2013-08-01 09:13:00,
2013-08-01 04:18:00,56.8,54.8,29.57,NW,315,0.0,1.6,93,0.00,,,0.00,WUHU216HW,2013-08-01 09:18:00,
2013-08-01 04:23:00,56.6,54.6,29.57,NW,315,0.6,1.2,93,0.00,,,0.00,WUHU216HW,2013-08-01 09:23:00,
2013-08-01 04:28:00,56.6,54.6,29.57,West,259,1.1,1.9,93,0.00,,,0.00,WUHU216HW,2013-08-01 09:28:00,
2013-08-01 04:33:00,56.8,54.8,29.57,NW,315,0.6,1.9,93,0.00,,,0.00,WUHU216HW,2013-08-01 09:33:00,
2013-08-01 04:38:00,56.6,54.6,29.57,NW,315,0.3,1.9,93,0.00,,,0.00,WUHU216HW,2013-08-01 09:38:00,
2013-08-01 04:44:00,56.6,54.6,29.57,NW,315,0.6,1.6,93,0.00,,,0.00,WUHU216HW,2013-08-01 09:44:00,
2013-08-01 04:50:00,56.2,54.2,29.57,NW,315,0.0,0.7,93,0.00,,,0.00,WUHU216HW,2013-08-01 09:50:00,
2013-08-01 04:56:00,56.0,54.0,29.57,West,270,1.3,1.6,93,0.00,,,0.00,WUHU216HW,2013-08-01 09:56:00,
2013-08-01 05:01:00,55.9,53.6,29.57,WSW,248,1.3,1.6,92,0.00,,,0.00,WUHU216HW,2013-08-01 10:01:00,
2013-08-01 05:07:00,55.7,53.4,29.57,WNW,293,0.0,1.6,92,0.00,,,0.00,WUHU216HW,2013-08-01 10:07:00,
2013-08-01 05:12:00,55.7,53.4,29.57,WSW,248,0.3,0.3,92,0.00,,,0.00,WUHU216HW,2013-08-01 10:12:00,
2013-08-01 05:17:00,55.3,53.0,29.57,ESE,113,1.0,1.2,92,0.00,,,0.00,WUHU216HW,2013-08-01 10:17:00,
2013-08-01 05:22:00,55.3,53.3,29.58,West,270,0.0,1.9,93,0.00,,,0.00,WUHU216HW,2013-08-01 10:22:00,
2013-08-01 05:27:00,55.3,53.0,29.57,North,0,1.3,1.9,92,0.00,,,0.00,WUHU216HW,2013-08-01 10:27:00,
2013-08-01 05:32:00,55.0,53.0,29.58,North,0,0.0,1.6,93,0.00,,,0.00,WUHU216HW,2013-08-01 10:32:00,
2013-08-01 05:37:00,54.8,52.8,29.58,NW,315,0.3,1.2,93,0.00,,,0.00,WUHU216HW,2013-08-01 10:37:00,
2013-08-01 05:42:00,54.6,52.6,29.58,NW,315,0.0,0.7,93,0.00,,,0.00,WUHU216HW,2013-08-01 10:42:00,
2013-08-01 05:48:00,54.6,52.6,29.58,NW,315,0.0,0.7,93,0.00,,,0.00,WUHU216HW,2013-08-01 10:48:00,
2013-08-01 05:53:00,54.4,52.4,29.58,NE,39,0.5,2.3,93,0.00,,,0.00,WUHU216HW,2013-08-01 10:53:00,
2013-08-01 05:58:00,54.2,52.2,29.58,NNE,23,0.5,2.3,93,0.00,,,0.00,WUHU216HW,2013-08-01 10:58:00,
2013-08-01 06:04:00,54.4,52.4,29.58,SW,225,1.7,1.9,93,0.00,,,0.00,WUHU216HW,2013-08-01 11:04:00,
2013-08-01 06:10:00,54.4,52.4,29.58,WSW,248,0.6,1.9,93,0.00,,,0.00,WUHU216HW,2013-08-01 11:10:00,
2013-08-01 06:15:00,54.4,52.4,29.58,West,270,0.0,1.2,93,0.00,,,0.00,WUHU216HW,2013-08-01 11:15:00,
2013-08-01 06:20:00,54.4,52.4,29.58,SW,225,0.6,1.2,93,0.00,,,0.00,WUHU216HW,2013-08-01 11:20:00,
2013-08-01 06:25:00,54.4,52.4,29.58,NW,315,0.3,0.7,93,0.00,,,0.00,WUHU216HW,2013-08-01 11:25:00,
2013-08-01 06:31:00,54.2,52.2,29.58,NW,315,0.0,0.3,93,0.00,,,0.00,WUHU216HW,2013-08-01 11:31:00,
2013-08-01 06:36:00,54.4,52.4,29.58,WNW,293,0.0,0.7,93,0.00,,,0.00,WUHU216HW,2013-08-01 11:36:00,
2013-08-01 06:42:00,54.4,52.4,29.58,NNW,338,0.3,2.8,93,0.00,,,0.00,WUHU216HW,2013-08-01 11:42:00,
2013-08-01 06:47:00,54.8,52.8,29.58,NW,315,0.3,2.8,93,0.00,,,0.00,WUHU216HW,2013-08-01 11:47:00,
2013-08-01 06:52:00,55.0,53.0,29.58,WNW,293,0.0,1.9,93,0.00,,,0.00,WUHU216HW,2013-08-01 11:52:00,
2013-08-01 06:57:00,55.0,53.0,29.59,WNW,293,0.3,1.9,93,0.00,,,0.00,WUHU216HW,2013-08-01 11:57:00,
2013-08-01 07:02:00,55.1,53.1,29.58,WNW,293,0.0,2.8,93,0.00,,,0.00,WUHU216HW,2013-08-01 12:02:00,
2013-08-01 07:08:00,55.5,53.5,29.58,WNW,293,0.6,2.8,93,0.00,,,0.00,WUHU216HW,2013-08-01 12:08:00,
2013-08-01 07:13:00,55.7,53.7,29.58,NW,315,0.0,1.6,93,0.00,,,0.00,WUHU216HW,2013-08-01 12:13:00,
2013-08-01 07:18:00,55.9,53.9,29.58,WSW,248,0.3,1.9,93,0.00,,,0.00,WUHU216HW,2013-08-01 12:18:00,
2013-08-01 07:23:00,56.2,54.5,29.58,West,270,0.6,1.9,94,0.00,,,0.00,WUHU216HW,2013-08-01 12:23:00,
2013-08-01 07:28:00,56.4,54.4,29.58,West,278,0.8,1.6,93,0.00,,,0.00,WUHU216HW,2013-08-01 12:28:00,
2013-08-01 07:33:00,56.8,54.8,29.59,SE,135,0.6,1.6,93,0.00,,,0.00,WUHU216HW,2013-08-01 12:33:00,
2013-08-01 07:39:00,57.1,55.1,29.59,NNW,338,1.7,1.9,93,0.00,,,0.00,WUHU216HW,2013-08-01 12:39:00,
2013-08-01 07:44:00,57.3,55.3,29.59,WSW,254,1.0,1.9,93,0.00,,,0.00,WUHU216HW,2013-08-01 12:44:00,
2013-08-01 07:49:00,57.8,55.7,29.59,West,275,1.4,1.9,93,0.00,,,0.00,WUHU216HW,2013-08-01 12:49:00,
2013-08-01 07:54:00,58.0,55.7,29.59,NW,315,1.0,1.9,92,0.00,,,0.00,WUHU216HW,2013-08-01 12:54:00,
2013-08-01 07:59:00,59.1,56.7,29.59,NW,315,0.6,3.1,92,0.00,,,0.00,WUHU216HW,2013-08-01 12:59:00,
2013-08-01 08:05:00,61.6,59.2,29.59,NW,315,0.6,3.1,92,0.00,,,0.00,WUHU216HW,2013-08-01 13:05:00,
2013-08-01 08:10:00,65.0,62.0,29.59,WSW,255,0.5,2.3,90,0.00,,,0.00,WUHU216HW,2013-08-01 13:10:00,
2013-08-01 08:16:00,68.5,63.2,29.59,SW,214,1.8,3.5,83,0.00,,,0.00,WUHU216HW,2013-08-01 13:16:00,
2013-08-01 08:21:00,70.3,63.2,29.59,SSE,149,1.4,3.5,78,0.00,,,0.00,WUHU216HW,2013-08-01 13:21:00,
2013-08-01 08:27:00,71.7,63.5,29.59,SSE,158,2.7,3.1,75,0.00,,,0.00,WUHU216HW,2013-08-01 13:27:00,
2013-08-01 08:33:00,72.8,63.8,29.59,WNW,293,0.7,3.9,73,0.00,,,0.00,WUHU216HW,2013-08-01 13:33:00,
2013-08-01 08:38:00,73.9,64.1,29.59,SW,225,1.3,3.9,71,0.00,,,0.00,WUHU216HW,2013-08-01 13:38:00,
2013-08-01 08:43:00,74.8,63.7,29.59,WSW,248,2.4,3.5,68,0.00,,,0.00,WUHU216HW,2013-08-01 13:43:00,
2013-08-01 08:49:00,75.1,63.6,29.59,NNW,338,1.7,3.5,67,0.00,,,0.00,WUHU216HW,2013-08-01 13:49:00,
2013-08-01 08:55:00,76.2,64.7,29.60,NE,40,1.3,3.5,67,0.00,,,0.00,WUHU216HW,2013-08-01 13:55:00,
2013-08-01 09:02:00,77.8,64.9,29.60,NNW,338,1.3,2.3,64,0.00,,,0.00,WUHU216HW,2013-08-01 14:02:00,
2013-08-01 09:07:00,78.7,63.9,29.60,West,270,1.0,3.9,60,0.00,,,0.00,WUHU216HW,2013-08-01 14:07:00,
2013-08-01 09:12:00,78.9,62.1,29.60,WNW,293,1.8,6.0,56,0.00,,,0.00,WUHU216HW,2013-08-01 14:12:00,
2013-08-01 09:17:00,78.5,62.2,29.60,NW,316,2.5,6.0,57,0.00,,,0.00,WUHU216HW,2013-08-01 14:17:00,
2013-08-01 09:22:00,78.5,62.7,29.60,South,174,0.8,4.4,58,0.00,,,0.00,WUHU216HW,2013-08-01 14:22:00,
2013-08-01 09:27:00,79.3,62.4,29.60,WNW,297,1.6,4.7,56,0.00,,,0.00,WUHU216HW,2013-08-01 14:27:00,
2013-08-01 09:33:00,79.8,62.4,29.60,NNE,23,5.4,6.3,55,0.00,,,0.00,WUHU216HW,2013-08-01 14:33:00,
2013-08-01 09:38:00,79.8,62.4,29.60,NNE,20,2.2,6.3,55,0.00,,,0.00,WUHU216HW,2013-08-01 14:38:00,
2013-08-01 09:44:00,79.6,61.7,29.60,North,350,1.3,6.0,54,0.00,,,0.00,WUHU216HW,2013-08-01 14:44:00,
2013-08-01 09:49:00,80.2,61.7,29.59,NNW,338,2.0,4.7,53,0.00,,,0.00,WUHU216HW,2013-08-01 14:49:00,
2013-08-01 09:54:00,80.3,61.2,29.60,WSW,248,3.0,4.4,52,0.00,,,0.00,WUHU216HW,2013-08-01 14:54:00,
2013-08-01 09:59:00,80.0,59.8,29.59,SSW,203,3.2,4.7,50,0.00,,,0.00,WUHU216HW,2013-08-01 14:59:00,
2013-08-01 10:05:00,80.0,59.8,29.59,NW,307,5.7,8.6,50,0.00,,,0.00,WUHU216HW,2013-08-01 15:05:00,
2013-08-01 10:11:00,79.8,59.6,29.59,SW,225,3.3,8.6,50,0.00,,,0.00,WUHU216HW,2013-08-01 15:11:00,
2013-08-01 10:16:00,80.0,59.2,29.59,NW,305,8.6,14.2,49,0.00,,,0.00,WUHU216HW,2013-08-01 15:16:00,
2013-08-01 10:21:00,80.0,59.8,29.59,North,0,4.1,14.2,50,0.00,,,0.00,WUHU216HW,2013-08-01 15:21:00,
2013-08-01 10:27:00,80.5,60.3,29.59,NE,36,4.3,5.4,50,0.00,,,0.00,WUHU216HW,2013-08-01 15:27:00,
2013-08-01 10:32:00,80.2,58.8,29.59,NW,315,6.0,7.0,48,0.00,,,0.00,WUHU216HW,2013-08-01 15:32:00,
2013-08-01 10:37:00,79.8,59.0,29.59,WNW,293,3.0,10.2,49,0.00,,,0.00,WUHU216HW,2013-08-01 15:37:00,
2013-08-01 10:43:00,79.8,59.6,29.59,WNW,293,1.7,10.2,50,0.00,,,0.00,WUHU216HW,2013-08-01 15:43:00,
2013-08-01 10:48:00,80.3,59.5,29.59,NW,313,2.2,9.8,49,0.00,,,0.00,WUHU216HW,2013-08-01 15:48:00,
2013-08-01 10:54:00,80.0,58.6,29.59,NNW,338,2.4,7.0,48,0.00,,,0.00,WUHU216HW,2013-08-01 15:54:00,
2013-08-01 10:59:00,80.2,59.4,29.60,WNW,293,3.8,7.0,49,0.00,,,0.00,WUHU216HW,2013-08-01 15:59:00,
2013-08-01 11:04:00,80.3,58.3,29.59,NNW,338,4.6,8.9,47,0.00,,,0.00,WUHU216HW,2013-08-01 16:04:00,
2013-08-01 11:10:00,80.0,58.6,29.60,WSW,242,3.2,8.9,48,0.00,,,0.00,WUHU216HW,2013-08-01 16:10:00,
2013-08-01 11:15:00,80.2,58.8,29.60,North,0,6.5,8.9,48,0.00,,,0.00,WUHU216HW,2013-08-01 16:15:00,
2013-08-01 11:20:00,79.6,58.3,29.60,NNE,23,5.4,7.5,48,0.00,,,0.00,WUHU216HW,2013-08-01 16:20:00,
2013-08-01 11:25:00,79.4,58.1,29.60,North,0,5.7,7.9,48,0.00,,,0.00,WUHU216HW,2013-08-01 16:25:00,
2013-08-01 11:31:00,79.1,59.0,29.60,West,270,4.1,11.0,50,0.00,,,0.00,WUHU216HW,2013-08-01 16:31:00,
2013-08-01 11:37:00,79.1,57.8,29.60,NNW,332,12.3,17.7,48,0.00,,,0.00,WUHU216HW,2013-08-01 16:37:00,
2013-08-01 11:42:00,78.7,58.6,29.60,North,0,15.8,18.4,50,0.00,,,0.00,WUHU216HW,2013-08-01 16:42:00,
2013-08-01 11:47:00,78.9,58.8,29.61,North,0,4.0,18.4,50,0.00,,,0.00,WUHU216HW,2013-08-01 16:47:00,
2013-08-01 11:52:00,78.9,59.4,29.60,WNW,302,2.7,7.0,51,0.00,,,0.00,WUHU216HW,2013-08-01 16:52:00,
2013-08-01 11:57:00,79.1,59.5,29.60,West,270,5.1,7.9,51,0.00,,,0.00,WUHU216HW,2013-08-01 16:57:00,
2013-08-01 12:02:00,79.4,59.2,29.60,North,0,3.8,9.8,50,0.00,,,0.00,WUHU216HW,2013-08-01 17:02:00,
2013-08-01 12:07:00,79.4,58.7,29.60,North,350,3.2,9.8,49,0.00,,,0.00,WUHU216HW,2013-08-01 17:07:00,
2013-08-01 12:13:00,79.8,60.2,29.60,NNW,338,2.4,6.0,51,0.00,,,0.00,WUHU216HW,2013-08-01 17:13:00,
2013-08-01 12:18:00,80.0,59.2,29.60,West,280,4.1,8.2,49,0.00,,,0.00,WUHU216HW,2013-08-01 17:18:00,
2013-08-01 12:23:00,79.1,58.4,29.60,NE,40,3.8,11.0,49,0.00,,,0.00,WUHU216HW,2013-08-01 17:23:00,
2013-08-01 12:28:00,78.4,57.2,29.61,North,0,3.8,11.0,48,0.00,,,0.00,WUHU216HW,2013-08-01 17:28:00,
2013-08-01 12:33:00,77.5,55.7,29.60,NNW,338,8.1,16.4,47,0.00,,,0.00,WUHU216HW,2013-08-01 17:33:00,
2013-08-01 12:38:00,76.9,56.9,29.60,WNW,293,1.9,16.4,50,0.00,,,0.00,WUHU216HW,2013-08-01 17:38:00,
2013-08-01 12:44:00,77.6,57.0,29.60,NNW,339,6.1,8.2,49,0.00,,,0.00,WUHU216HW,2013-08-01 17:44:00,
2013-08-01 12:50:00,78.7,57.4,29.60,West,270,6.0,8.2,48,0.00,,,0.00,WUHU216HW,2013-08-01 17:50:00,
2013-08-01 12:55:00,79.1,58.4,29.60,WNW,293,3.0,7.0,49,0.00,,,0.00,WUHU216HW,2013-08-01 17:55:00,
2013-08-01 13:01:00,80.3,60.1,29.60,NNW,338,6.0,7.0,50,0.00,,,0.00,WUHU216HW,2013-08-01 18:01:00,
2013-08-01 13:06:00,81.2,57.2,29.60,NNW,338,7.4,8.6,44,0.00,,,0.00,WUHU216HW,2013-08-01 18:06:00,
2013-08-01 13:11:00,80.5,56.6,29.60,NW,326,5.2,10.5,44,0.00,,,0.00,WUHU216HW,2013-08-01 18:11:00,
2013-08-01 13:16:00,80.2,57.0,29.60,NW,317,2.0,10.5,45,0.00,,,0.00,WUHU216HW,2013-08-01 18:16:00,
2013-08-01 13:21:00,80.3,55.1,29.60,North,353,10.6,16.4,42,0.00,,,0.00,WUHU216HW,2013-08-01 18:21:00,
2013-08-01 13:26:00,80.3,57.0,29.60,North,358,3.2,16.4,45,0.00,,,0.00,WUHU216HW,2013-08-01 18:26:00,
2013-08-01 13:31:00,80.3,55.7,29.60,NE,38,8.2,11.4,43,0.00,,,0.00,WUHU216HW,2013-08-01 18:31:00,
2013-08-01 13:36:00,80.7,56.1,29.59,NW,319,4.0,11.4,43,0.00,,,0.00,WUHU216HW,2013-08-01 18:36:00,
2013-08-01 13:42:00,81.2,56.6,29.60,North,351,3.7,10.2,43,0.00,,,0.00,WUHU216HW,2013-08-01 18:42:00,
2013-08-01 13:47:00,81.2,54.5,29.60,NE,37,7.1,12.6,40,0.00,,,0.00,WUHU216HW,2013-08-01 18:47:00,
2013-08-01 13:52:00,80.9,55.6,29.60,NW,320,3.8,12.6,42,0.00,,,0.00,WUHU216HW,2013-08-01 18:52:00,
2013-08-01 13:58:00,81.6,56.3,29.60,NNW,338,3.8,12.1,42,0.00,,,0.00,WUHU216HW,2013-08-01 18:58:00,
2013-08-01 14:03:00,81.6,55.6,29.60,WNW,289,4.9,12.1,41,0.00,,,0.00,WUHU216HW,2013-08-01 19:03:00,
2013-08-01 14:08:00,81.8,55.8,29.60,NW,315,5.1,12.1,41,0.00,,,0.00,WUHU216HW,2013-08-01 19:08:00,
2013-08-01 14:13:00,81.2,54.5,29.60,WSW,248,8.4,9.8,40,0.00,,,0.00,WUHU216HW,2013-08-01 19:13:00,
2013-08-01 14:19:00,81.1,56.5,29.60,WNW,293,3.8,9.8,43,0.00,,,0.00,WUHU216HW,2013-08-01 19:19:00,
2013-08-01 14:24:00,81.6,56.3,29.59,WSW,248,1.7,7.0,42,0.00,,,0.00,WUHU216HW,2013-08-01 19:24:00,
2013-08-01 14:29:00,82.1,58.0,29.60,North,353,2.8,6.7,44,0.00,,,0.00,WUHU216HW,2013-08-01 19:29:00,
2013-08-01 14:35:00,82.5,55.7,29.59,NNW,338,7.0,13.3,40,0.00,,,0.00,WUHU216HW,2013-08-01 19:35:00,
2013-08-01 14:40:00,82.3,56.9,29.59,WNW,286,3.0,13.3,42,0.00,,,0.00,WUHU216HW,2013-08-01 19:40:00,
2013-08-01 14:45:00,82.3,56.2,29.59,NNW,338,1.7,6.0,41,0.00,,,0.00,WUHU216HW,2013-08-01 19:45:00,
2013-08-01 14:50:00,82.3,56.2,29.59,NW,319,3.3,7.0,41,0.00,,,0.00,WUHU216HW,2013-08-01 19:50:00,
2013-08-01 14:56:00,82.3,56.2,29.59,NNW,338,9.8,11.4,41,0.00,,,0.00,WUHU216HW,2013-08-01 19:56:00,
2013-08-01 15:01:00,82.5,56.4,29.59,NNW,338,7.6,11.4,41,0.00,,,0.00,WUHU216HW,2013-08-01 20:01:00,
2013-08-01 15:06:00,82.7,56.6,29.59,WNW,303,1.9,8.9,41,0.00,,,0.00,WUHU216HW,2013-08-01 20:06:00,
2013-08-01 15:11:00,82.3,55.5,29.59,North,0,5.3,8.2,40,0.00,,,0.00,WUHU216HW,2013-08-01 20:11:00,
2013-08-01 15:17:00,82.3,55.5,29.58,North,0,5.4,7.9,40,0.00,,,0.00,WUHU216HW,2013-08-01 20:17:00,
2013-08-01 15:22:00,82.1,56.0,29.58,North,0,2.4,8.6,41,0.00,,,0.00,WUHU216HW,2013-08-01 20:22:00,
2013-08-01 15:27:00,82.1,56.7,29.58,NNW,338,2.7,8.6,42,0.00,,,0.00,WUHU216HW,2013-08-01 20:27:00,
2013-08-01 15:32:00,82.7,56.6,29.58,West,270,5.1,6.3,41,0.00,,,0.00,WUHU216HW,2013-08-01 20:32:00,
2013-08-01 15:38:00,82.7,55.9,29.58,NNW,338,3.8,6.3,40,0.00,,,0.00,WUHU216HW,2013-08-01 20:38:00,
2013-08-01 15:41:00,82.7,56.6,29.58,WNW,293,2.7,6.3,41,0.00,,,0.00,WUHU216HW,2013-08-01 20:41:00,
2013-08-01 15:46:00,82.7,56.6,29.58,NNW,335,3.8,6.0,41,0.00,,,0.00,WUHU216HW,2013-08-01 20:46:00,
2013-08-01 15:51:00,83.0,57.5,29.58,NNW,338,3.8,6.0,42,0.00,,,0.00,WUHU216HW,2013-08-01 20:51:00,
2013-08-01 15:57:00,83.2,59.0,29.58,WNW,293,1.7,4.7,44,0.00,,,0.00,WUHU216HW,2013-08-01 20:57:00,
2013-08-01 16:02:00,83.8,57.6,29.58,North,0,2.7,6.7,41,0.00,,,0.00,WUHU216HW,2013-08-01 21:02:00,
2013-08-01 16:07:00,83.4,55.8,29.58,NNW,338,5.4,9.4,39,0.00,,,0.00,WUHU216HW,2013-08-01 21:07:00,
2013-08-01 16:12:00,83.2,55.6,29.58,NW,310,2.8,9.4,39,0.00,,,0.00,WUHU216HW,2013-08-01 21:12:00,
2013-08-01 16:17:00,83.0,56.8,29.57,NNW,336,2.0,5.4,41,0.00,,,0.00,WUHU216HW,2013-08-01 21:17:00,
2013-08-01 16:23:00,83.2,55.6,29.57,ESE,113,5.1,6.0,39,0.00,,,0.00,WUHU216HW,2013-08-01 21:23:00,
2013-08-01 16:28:00,83.0,56.8,29.56,WSW,248,1.2,6.0,41,0.00,,,0.00,WUHU216HW,2013-08-01 21:28:00,
2013-08-01 16:33:00,83.0,55.4,29.56,NW,320,3.4,6.3,39,0.00,,,0.00,WUHU216HW,2013-08-01 21:33:00,
2013-08-01 16:39:00,83.2,57.0,29.56,SW,225,3.0,6.3,41,0.00,,,0.00,WUHU216HW,2013-08-01 21:39:00,
2013-08-01 16:44:00,83.0,56.8,29.56,NNW,338,2.7,8.2,41,0.00,,,0.00,WUHU216HW,2013-08-01 21:44:00,
2013-08-01 16:49:00,83.0,56.8,29.56,NE,45,4.4,8.2,41,0.00,,,0.00,WUHU216HW,2013-08-01 21:49:00,
2013-08-01 16:54:00,82.7,55.9,29.56,SSE,158,0.6,11.4,40,0.00,,,0.00,WUHU216HW,2013-08-01 21:54:00,
2013-08-01 16:59:00,82.9,56.0,29.56,NNE,23,5.1,6.0,40,0.00,,,0.00,WUHU216HW,2013-08-01 21:59:00,
2013-08-01 17:04:00,82.3,55.5,29.55,NW,315,1.9,7.5,40,0.00,,,0.00,WUHU216HW,2013-08-01 22:04:00,
2013-08-01 17:10:00,82.3,55.5,29.56,WNW,293,2.4,7.5,40,0.00,,,0.00,WUHU216HW,2013-08-01 22:10:00,
2013-08-01 17:15:00,81.6,54.2,29.55,NW,315,4.4,7.5,39,0.00,,,0.00,WUHU216HW,2013-08-01 22:15:00,
2013-08-01 17:20:00,80.9,54.2,29.55,NNW,338,2.7,7.5,40,0.00,,,0.00,WUHU216HW,2013-08-01 22:20:00,
2013-08-01 17:26:00,80.2,53.6,29.55,NW,307,2.5,5.1,40,0.00,,,0.00,WUHU216HW,2013-08-01 22:26:00,
2013-08-01 17:31:00,79.3,53.5,29.55,NNE,27,0.8,6.3,41,0.00,,,0.00,WUHU216HW,2013-08-01 22:31:00,
2013-08-01 17:37:00,78.9,53.8,29.55,SSE,158,2.4,6.3,42,0.00,,,0.00,WUHU216HW,2013-08-01 22:37:00,
2013-08-01 17:43:00,78.7,54.3,29.54,SSE,158,2.4,5.1,43,0.00,,,0.00,WUHU216HW,2013-08-01 22:43:00,
2013-08-01 17:48:00,77.6,53.9,29.54,NNW,338,0.6,3.5,44,0.00,,,0.00,WUHU216HW,2013-08-01 22:48:00,
2013-08-01 17:53:00,77.5,53.9,29.54,NW,315,1.0,3.5,44,0.00,,,0.00,WUHU216HW,2013-08-01 22:53:00,
2013-08-01 17:58:00,76.9,53.3,29.54,WSW,248,2.7,6.7,44,0.00,,,0.00,WUHU216HW,2013-08-01 22:58:00,
2013-08-01 18:04:00,76.4,53.5,29.54,WNW,293,1.7,3.1,45,0.00,,,0.00,WUHU216HW,2013-08-01 23:04:00,
2013-08-01 18:09:00,76.2,53.3,29.54,NNW,338,1.0,4.4,45,0.00,,,0.00,WUHU216HW,2013-08-01 23:09:00,
2013-08-01 18:14:00,75.8,53.6,29.54,North,0,0.6,4.4,46,0.00,,,0.00,WUHU216HW,2013-08-01 23:14:00,
2013-08-01 18:19:00,75.3,53.1,29.55,NW,309,3.1,5.4,46,0.00,,,0.00,WUHU216HW,2013-08-01 23:19:00,
2013-08-01 18:24:00,75.1,53.5,29.55,North,0,2.2,5.4,47,0.00,,,0.00,WUHU216HW,2013-08-01 23:24:00,
2013-08-01 18:29:00,74.9,53.3,29.55,NW,315,2.4,3.5,47,0.00,,,0.00,WUHU216HW,2013-08-01 23:29:00,
2013-08-01 18:34:00,74.8,53.8,29.55,NNW,338,0.6,2.8,48,0.00,,,0.00,WUHU216HW,2013-08-01 23:34:00,
2013-08-01 18:39:00,74.4,54.1,29.56,NW,315,0.6,1.2,49,0.00,,,0.00,WUHU216HW,2013-08-01 23:39:00,
2013-08-01 18:45:00,74.0,53.7,29.55,WSW,248,1.3,1.6,49,0.00,,,0.00,WUHU216HW,2013-08-01 23:45:00,
2013-08-01 18:50:00,73.7,54.0,29.55,NNW,338,0.6,1.6,50,0.00,,,0.00,WUHU216HW,2013-08-01 23:50:00,
2013-08-01 18:55:00,73.3,53.6,29.55,WSW,248,1.9,2.3,50,0.00,,,0.00,WUHU216HW,2013-08-01 23:55:00,
2013-08-01 19:00:00,72.8,53.7,29.55,NNW,338,0.0,2.3,51,0.00,,,0.00,WUHU216HW,2013-08-02 00:00:00,
2013-08-01 19:05:00,72.6,53.5,29.55,NE,45,0.6,2.8,51,0.00,,,0.00,WUHU216HW,2013-08-02 00:05:00,
2013-08-01 19:10:00,72.2,53.7,29.55,WNW,299,0.5,2.8,52,0.00,,,0.00,WUHU216HW,2013-08-02 00:10:00,
2013-08-01 19:15:00,71.9,53.4,29.55,NE,45,0.0,0.7,52,0.00,,,0.00,WUHU216HW,2013-08-02 00:15:00,
2013-08-01 19:21:00,71.3,52.9,29.55,ENE,68,0.0,0.0,52,0.00,,,0.00,WUHU216HW,2013-08-02 00:21:00,
2013-08-01 19:26:00,71.0,53.1,29.55,WSW,248,0.0,0.7,53,0.00,,,0.00,WUHU216HW,2013-08-02 00:26:00,
2013-08-01 19:32:00,70.6,53.3,29.55,WSW,248,0.0,0.7,54,0.00,,,0.00,WUHU216HW,2013-08-02 00:32:00,
2013-08-01 19:37:00,70.1,53.3,29.55,WSW,248,0.0,0.0,55,0.00,,,0.00,WUHU216HW,2013-08-02 00:37:00,
2013-08-01 19:42:00,69.5,53.3,29.55,SSW,203,1.0,1.2,56,0.00,,,0.00,WUHU216HW,2013-08-02 00:42:00,
2013-08-01 19:47:00,69.0,53.3,29.54,South,180,0.0,1.2,57,0.00,,,0.00,WUHU216HW,2013-08-02 00:47:00,
2013-08-01 19:52:00,68.6,53.4,29.54,North,0,0.3,0.7,58,0.00,,,0.00,WUHU216HW,2013-08-02 00:52:00,
2013-08-01 19:57:00,68.3,53.1,29.54,North,0,0.0,0.3,58,0.00,,,0.00,WUHU216HW,2013-08-02 00:57:00,
2013-08-01 20:02:00,67.9,53.2,29.54,North,0,0.0,0.0,59,0.00,,,0.00,WUHU216HW,2013-08-02 01:02:00,
2013-08-01 20:07:00,67.4,52.7,29.54,North,0,0.0,0.0,59,0.00,,,0.00,WUHU216HW,2013-08-02 01:07:00,
2013-08-01 20:13:00,66.8,52.6,29.54,North,0,0.0,0.0,60,0.00,,,0.00,WUHU216HW,2013-08-02 01:13:00,
2013-08-01 20:18:00,66.1,52.4,29.55,North,0,0.0,0.3,61,0.00,,,0.00,WUHU216HW,2013-08-02 01:18:00,
2013-08-01 20:23:00,65.6,52.4,29.55,North,0,0.0,0.3,62,0.00,,,0.00,WUHU216HW,2013-08-02 01:23:00,
2013-08-01 20:28:00,65.0,51.8,29.54,SSE,158,0.0,0.0,62,0.00,,,0.00,WUHU216HW,2013-08-02 01:28:00,
2013-08-01 20:33:00,64.7,52.0,29.54,South,180,0.0,1.2,63,0.00,,,0.00,WUHU216HW,2013-08-02 01:33:00,
2013-08-01 20:38:00,64.3,52.0,29.54,South,180,0.0,1.2,64,0.00,,,0.00,WUHU216HW,2013-08-02 01:38:00,
2013-08-01 20:43:00,63.8,51.5,29.54,South,180,0.0,0.0,64,0.00,,,0.00,WUHU216HW,2013-08-02 01:43:00,
2013-08-01 20:48:00,63.4,51.6,29.54,South,180,0.0,0.0,65,0.00,,,0.00,WUHU216HW,2013-08-02 01:48:00,
2013-08-01 20:53:00,63.1,51.3,29.54,South,180,0.0,0.0,65,0.00,,,0.00,WUHU216HW,2013-08-02 01:53:00,
2013-08-01 20:59:00,62.9,51.5,29.55,South,180,0.0,0.0,66,0.00,,,0.00,WUHU216HW,2013-08-02 01:59:00,
2013-08-01 21:04:00,62.5,51.5,29.55,WSW,248,0.0,0.0,67,0.00,,,0.00,WUHU216HW,2013-08-02 02:04:00,
2013-08-01 21:10:00,62.3,51.8,29.55,WSW,248,0.0,0.0,68,0.00,,,0.00,WUHU216HW,2013-08-02 02:10:00,
2013-08-01 21:15:00,62.0,51.9,29.56,WSW,248,0.0,0.0,69,0.00,,,0.00,WUHU216HW,2013-08-02 02:15:00,
2013-08-01 21:20:00,61.8,51.7,29.56,WSW,248,0.0,0.0,69,0.00,,,0.00,WUHU216HW,2013-08-02 02:20:00,
2013-08-01 21:25:00,61.6,51.9,29.55,WSW,248,0.0,0.0,70,0.00,,,0.00,WUHU216HW,2013-08-02 02:25:00,
2013-08-01 21:30:00,61.4,51.7,29.55,WSW,248,0.0,0.0,70,0.00,,,0.00,WUHU216HW,2013-08-02 02:30:00,
2013-08-01 21:35:00,61.1,51.8,29.55,SSW,203,2.7,3.1,71,0.00,,,0.00,WUHU216HW,2013-08-02 02:35:00,
2013-08-01 21:40:00,61.1,52.1,29.55,SW,225,3.3,3.9,72,0.00,,,0.00,WUHU216HW,2013-08-02 02:40:00,
2013-08-01 21:45:00,61.4,52.0,29.55,South,180,2.4,3.9,71,0.00,,,0.00,WUHU216HW,2013-08-02 02:45:00,
2013-08-01 21:51:00,61.4,52.0,29.55,South,180,1.7,2.8,71,0.00,,,0.00,WUHU216HW,2013-08-02 02:51:00,
2013-08-01 21:56:00,61.3,52.0,29.55,SSW,203,0.0,1.9,71,0.00,,,0.00,WUHU216HW,2013-08-02 02:56:00,
2013-08-01 22:01:00,61.1,52.1,29.55,SW,225,1.7,2.8,72,0.00,,,0.00,WUHU216HW,2013-08-02 03:01:00,
2013-08-01 22:07:00,61.1,52.1,29.55,SSW,203,0.0,2.8,72,0.00,,,0.00,WUHU216HW,2013-08-02 03:07:00,
2013-08-01 22:12:00,60.9,51.9,29.54,SSW,203,0.0,0.7,72,0.00,,,0.00,WUHU216HW,2013-08-02 03:12:00,
2013-08-01 22:17:00,60.7,51.7,29.54,SSW,203,0.0,0.7,72,0.00,,,0.00,WUHU216HW,2013-08-02 03:17:00,
2013-08-01 22:22:00,60.5,51.9,29.54,SSW,203,0.0,0.7,73,0.00,,,0.00,WUHU216HW,2013-08-02 03:22:00,
2013-08-01 22:27:00,60.4,51.8,29.54,South,180,1.7,1.9,73,0.00,,,0.00,WUHU216HW,2013-08-02 03:27:00,
2013-08-01 22:32:00,60.2,51.6,29.54,SW,225,0.6,1.9,73,0.00,,,0.00,WUHU216HW,2013-08-02 03:32:00,
2013-08-01 22:37:00,60.0,51.8,29.53,SW,225,0.0,1.9,74,0.00,,,0.00,WUHU216HW,2013-08-02 03:37:00,
2013-08-01 22:42:00,60.0,51.8,29.53,SE,135,0.0,0.0,74,0.00,,,0.00,WUHU216HW,2013-08-02 03:42:00,
2013-08-01 22:48:00,60.2,52.0,29.53,SSE,158,1.3,1.6,74,0.00,,,0.00,WUHU216HW,2013-08-02 03:48:00,
2013-08-01 22:53:00,60.2,52.0,29.53,South,180,0.8,1.6,74,0.00,,,0.00,WUHU216HW,2013-08-02 03:53:00,
2013-08-01 22:58:00,60.4,52.2,29.53,South,180,1.3,1.6,74,0.00,,,0.00,WUHU216HW,2013-08-02 03:58:00,
2013-08-01 23:01:00,60.4,52.2,29.53,SE,135,0.6,1.6,74,0.00,,,0.00,WUHU216HW,2013-08-02 04:01:00,
2013-08-01 23:03:00,60.4,52.5,29.52,SE,145,1.2,1.9,75,0.00,,,0.00,WUHU216HW,2013-08-02 04:03:00,
2013-08-01 23:09:00,60.7,52.8,29.52,SE,135,0.6,1.9,75,0.00,,,0.00,WUHU216HW,2013-08-02 04:09:00,
2013-08-01 23:13:00,60.7,52.8,29.53,South,180,1.7,1.9,75,0.00,,,0.00,WUHU216HW,2013-08-02 04:13:00,
2013-08-01 23:17:00,61.1,53.2,29.53,SSW,193,3.2,4.4,75,0.00,,,0.00,WUHU216HW,2013-08-02 04:17:00,
2013-08-01 23:22:00,61.8,53.5,29.53,SSE,158,3.8,4.4,74,0.00,,,0.00,WUHU216HW,2013-08-02 04:22:00,
2013-08-01 23:27:00,62.3,54.0,29.53,SW,225,4.1,6.0,74,0.00,,,0.00,WUHU216HW,2013-08-02 04:27:00,
2013-08-01 23:32:00,62.7,54.0,29.52,SSW,199,3.2,6.0,73,0.00,,,0.00,WUHU216HW,2013-08-02 04:32:00,
2013-08-01 23:37:00,62.9,53.9,29.53,SSW,203,2.7,4.7,72,0.00,,,0.00,WUHU216HW,2013-08-02 04:37:00,
2013-08-01 23:42:00,62.9,53.9,29.53,SSW,203,2.4,3.5,72,0.00,,,0.00,WUHU216HW,2013-08-02 04:42:00,
2013-08-01 23:48:00,62.9,54.2,29.52,SSW,203,3.0,3.9,73,0.00,,,0.00,WUHU216HW,2013-08-02 04:48:00,
2013-08-01 23:53:00,62.9,53.9,29.52,SSW,192,3.5,4.4,72,0.00,,,0.00,WUHU216HW,2013-08-02 04:53:00,
2013-08-01 23:58:00,63.1,53.7,29.52,South,180,4.1,6.0,71,0.00,,,0.00,WUHU216HW,2013-08-02 04:58:00,